Skip Page Navigation
NASA JPL Caltech
NASA Logo - Jet Propulsion Laboratory + View the NASA Portal
+ Center for Near-Earth Object Studies
JPL Home Earth Solar System Stars & Galaxies Technology
JPL Solar System Dynamics
BODIES ORBITS EPHEMERIDES TOOLS PHYSICAL DATA DISCOVERY FAQ SITE MAP
IMPORTANT: The SSD Announcement email list is now available. Major changes are coming in the near future, including possible hostname and/or URL changes. To be notified of such changes, subscribe to this email list.

Please visit this page for more details.


JPL Small-Body Database Browser
Search: [ help ]  
35463 (1998 DJ32)
Classification: Main-belt Asteroid          SPK-ID: 2035463
Ephemeris | Orbit Diagram | Orbital Elements | Mission Design | Physical Parameters | Discovery Circumstances | Close-Approach Data ]

[ show orbit diagram ]
Orbital Elements at Epoch 2459000.5 (2020-May-31.0) TDB
Reference: JPL 27 (heliocentric ecliptic J2000)
 Element Value Uncertainty (1-sigma)   Units 
e .002646707306415055 3.7406e-08  
a 2.626574144999085 1.0406e-08 au
q 2.619622372018675 9.4987e-08 au
i 1.989899679618993 3.824e-06 deg
node 196.4744417125955 9.8293e-05 deg
peri 220.149119995986 0.00095763 deg
M 104.445910112069 0.00094915 deg
tp 2458549.401002393766
(2019-Mar-06.90100239)
0.0041001 TDB
period 1554.83004517837
4.26
9.2404e-06
2.53e-08
d
yr
n .2315365599709008 1.376e-09 deg/d
Q 2.633525917979495 1.0434e-08 au
  Orbit Determination Parameters
   # obs. used (total)      1766  
   data-arc span      9152 days (25.06 yr)  
   first obs. used      1995-04-09  
   last obs. used      2020-04-29  
   planetary ephem.      DE431  
   SB-pert. ephem.      SB431-N16  
   condition code      0  
   norm. resid. RMS      .53356  
   source      ORB  
   producer      Otto Matic  
   solution date      2020-May-20 08:05:51  

Additional Information
 Earth MOID = 1.61496 au 
 Jupiter MOID = 2.3349 au 
 T_jup = 3.401 
[ show covariance matrix ]

Ephemeris | Orbit Diagram | Orbital Elements | Mission Design | Physical Parameters | Discovery Circumstances | Close-Approach Data ]

Physical Parameter Table
Parameter Symbol Value Units Sigma Reference Notes
absolute magnitude H 14.4   n/a MPO502415  

35463 (1998 DJ32)          Discovered 1998-Feb-22 by BAO Schmidt CCD Asteroid Program at Xinglong
Reference: 20020227/Numbers.arcLast Updated: 2004-04-19

[ show close-approach data ]
Alternate Designations
 1998 DJ32 = 1997 WN32 = 1999 FF4 
Ephemeris | Orbit Diagram | Orbital Elements | Mission Design | Physical Parameters | Discovery Circumstances | Close-Approach Data ]
ABOUT SSD CREDITS/AWARDS PRIVACY/COPYRIGHT GLOSSARY LINKS
FirstGov 2020-May-26 21:31 UT
(server date/time)  
NASA Home Page
Site Manager:   Ryan S. Park
Webmaster  Alan B. Chamberlin